User: anonymous   Login
Location: Congrier
(47.8099°N, 1.1170°W)
Time: 12:47:35
(UTC+00:00)
Language:

FENGYUN 1C DEB - Orbit

View from above orbital plane
View from above orbital plane
View from above satellite
View from above satellite

Ground track
Ground track

The orbit data is extracted from the following two-line orbital elements,

1 31810U 99025CGY 24051.33309993  .00004367  00000-0  10437-2 0  9996
2 31810  98.3236  78.2557 0233341 343.3782  15.9847 14.38863914548789
Epoch (UTC): 20 February 2024 07:59:39
Eccentricity: 0.0233341
inclination: 98.3236°
perigee height: 595 km
apogee height: 929 km
right ascension of ascending node: 78.2557°
argument of perigee: 343.3782°
revolutions per day: 14.38863914
mean anomaly at epoch: 15.9847°
orbit number at epoch: 54878

The dashed part of the orbit path shows where the satellite is in the earth's shadow,  

DLR